Location: Champignolles
(47.0543°N, 4.5663°E)
Time: 04:53:39
(UTC+00:00)

N. Korean satellite - Pass Details

Date: 15 December 2021
Orbit: 447 x 491 km, 97.3° (Epoch: 25 January)

Event Time Altitude Azimuth Distance (km) Brightness Sun altitude
Rises 16:24:27 0° 181° (S) 2,483 10.6 -5.4°
Reaches altitude 10° 16:26:34 10° 188° (S) 1,605 9.7 -5.7°
Maximum altitude 16:29:51 43° 261° (W) 658 7.9 -6.2°
Drops below altitude 10° 16:33:08 10° 334° (NNW) 1,599 9.2 -6.7°
Sets 16:35:15 0° 342° (NNW) 2,472 10.1 -7.1°
